Miscellaneous Local Product
Issued by NWS Hastings, NE

Home | Current Version | Previous Version | Graphics & Text | Print | Product List | Glossary On
Versions: 1 2 3 4 5 6 7 8 9 10 11 12 13 14 15 16 17 18 19 20 21 22 23 24 25 26 27 28 29 30 31 32 33 34 35 36 37 38 39 40 41 42 43 44 45 46 47 48 49 50
000
AXUS43 KGID 251102
MISGRI

GID CWA HOURLY WEATHER ROUNDUP
NATIONAL WEATHER SERVICE HASTINGS NE
500 AM CST SUN JAN 25 2015

NOTE: "FAIR" INDICATES FEW OR NO CLOUDS BELOW 12,000 FEET WITH NO
SIGNIFICANT WEATHER AND/OR OBSTRUCTIONS TO VISIBILITY.

...SOUTH CENTRAL NEBRASKA...

CITY           SKY/WX    TMP DP  RH WIND       PRES   REMARKS
GRAND ISLAND   CLOUDY    39  34  82 N24G33    29.86R WCI  28
HASTINGS       CLOUDY    40  33  76 NW24G39   29.85R WCI  29
KEARNEY        CLOUDY    41  28  60 NW18G26   29.89R
ORD            CLOUDY    39  31  72 NW26G41   29.86R WCI  28
YORK           CLOUDY    37  32  81 N21G32    29.79S WCI  27
AURORA         CLOUDY    38  33  79 N23       29.83R WCI  28
LEXINGTON      CLOUDY    40  30  68 NW24G32   29.95R WCI  29
HOLDREGE       PTCLDY    39  28  64 NW25G32   29.90R WCI  28
HEBRON         CLOUDY    41  32  69 NW21G33   29.81R

...NEBRASKA PANHANDLE...

CITY           SKY/WX    TMP DP  RH WIND       PRES   REMARKS
CHADRON        CLEAR     31  25  78 W14       30.07S WCI  21
ALLIANCE       CLEAR     32  24  72 NW13      30.05S WCI  22
SCOTTSBLUFF    CLEAR     38  26  62 NW20G28   30.09S WCI  28
SIDNEY         CLOUDY    35  25  66 NW13      30.09F WCI  26

...WESTERN AND NORTH CENTRAL NEBRASKA...

CITY           SKY/WX    TMP DP  RH WIND       PRES   REMARKS
VALENTINE      PTCLDY    36  29  75 NW17      29.96R WCI  26
AINSWORTH      PTCLDY    36  29  77 NW21G30   29.94R WCI  24
ONEILL         RAIN      35  34  98 N13G20    29.88R WCI  26
BROKEN BOW     MOCLDY    39  29  67 NW35G43   29.89R WCI  26
IMPERIAL       CLEAR     39  22  50 NW22      30.03R WCI  29
NORTH PLATTE   CLEAR     33  27  78 NW16      29.98R WCI  23
MCCOOK         CLEAR     37  27  67 NW17      29.99R WCI  27

...EASTERN NEBRASKA...

CITY           SKY/WX    TMP DP  RH WIND       PRES   REMARKS
NORFOLK        CLOUDY    34  31  88 NW22G28   29.81R WCI  22
SO SIOUX CITY  LGT SNOW  34  32  92 N18       29.78R FOG     WCI  23
TEKAMAH        LGT RAIN  35  32  88 NW22      29.74R WCI  23
COLUMBUS       CLOUDY    34  27  75 NW17G26   29.82R WCI  23
ALBION         RAIN      35  32  89 N17G24    29.84R WCI  24
OMAHA EPPLEY   LGT RAIN  35  32  88 NW23G32   29.71R WCI  23
OFFUTT AFB     LGT RAIN  36  32  87 NW20G31   29.70R WCI  25
MILLARD        LGT RAIN  36  32  85 NW18G25   29.72R WCI  26
LINCOLN        CLOUDY    37  31  78 NW25G36   29.77R WCI  25
NEBRASKA CITY  CLOUDY    37  32  82 N30G37    29.67S WCI  24
BEATRICE       CLOUDY    37  33  82 NW28G37   29.76R WCI  25
FALLS CITY     CLOUDY    39  33  79 NW32G40   29.67R WCI  27

...NORTHERN KANSAS...

CITY           SKY/WX    TMP DP  RH WIND       PRES   REMARKS
GOODLAND       CLEAR     36  26  67 NW17      30.06R WCI  26
HILL CITY      CLEAR     40  27  59 NW17G26   29.98R WCI  31
NORTON         SUNNY     36  25  64 W15       29.96R WCI  26
PHILLIPSBURG   CLEAR     43  30  61 NW17G26   29.93R
SMITH CENTER   CLOUDY    41  28  60 NW30G38   29.89R
BELOIT         CLOUDY    45  34  65 NW24G38   29.86R
HAYS           PTCLDY    41  25  52 NW21G29   29.94S
RUSSELL        PTCLDY    42  30  62 NW23G31   29.90R
CONCORDIA      CLOUDY    43  34  70 NW25G46   29.82R
SALINA         LGT RAIN  45  37  73 NW28G38   29.84R
TOPEKA         CLOUDY    46  36  68 NW20G28   29.70R



USA.gov is the U.S. government's official web portal to all federal, state and local government web resources and services.